DW2738 Weather Reports


Display with metric or nautical units.
time (UTC)temp
F
wind
direction
speed
MPH
gust
MPH
rain 1hr
in
rain 24hr
in
rain mn
in
humidity
%
barometer
mb
20260505003026 61 243 0.0 2.0 0.00 0.00 0.00 71 1011.1
20260505002521 61 172 0.0 2.0 0.00 0.00 0.00 71 1010.8
20260505002020 61 166 1.0 2.0 0.00 0.00 0.00 70 1010.9
20260505001517 61 188 0.0 2.0 0.00 0.00 0.00 71 1010.7
20260505001014 62 166 1.0 2.0 0.00 0.00 0.00 70 1010.8
20260505000512 62 180 0.0 2.0 0.00 0.00 0.00 70 1010.6
20260505000009 62 180 0.0 2.0 0.00 0.00 0.00 69 1010.7
20260504235505 62 220 0.0 4.0 0.00 0.00 0.00 69 1010.8
20260504235001 63 123 2.0 3.0 0.00 0.00 0.00 68 1010.8
20260504234453 64 195 0.0 4.0 0.00 0.00 0.00 66 1010.4
20260504233950 64 195 0.0 4.0 0.00 0.00 0.00 66 1010.4
20260504233445 64 195 0.0 4.0 0.00 0.00 0.00 66 1010.4
20260504232943 64 120 2.0 2.0 0.00 0.00 0.00 67 1010.4
20260504232440 65 155 3.0 4.0 0.00 0.00 0.00 65 1010.5
20260504231937 65 186 1.0 4.0 0.00 0.00 0.00 62 1010.5
20260504231433 66 194 1.0 8.0 0.00 0.00 0.00 61 1010.4
20260504230929 66 159 2.0 7.0 0.00 0.00 0.00 60 1010.3
20260504230426 66 157 2.0 3.0 0.00 0.00 0.00 58 1010.3
20260504225926 67 215 3.0 3.0 0.00 0.00 0.00 58 1010.4
20260504225422 67 173 5.0 5.0 0.00 0.00 0.00 57 1010.4
20260504224919 67 145 1.0 2.0 0.00 0.00 0.00 57 1010.5
20260504224416 67 159 3.0 4.0 0.00 0.00 0.00 56 1010.1
20260504223913 68 180 1.0 3.0 0.00 0.00 0.00 56 1010.3
20260504223408 68 186 5.0 7.0 0.00 0.00 0.00 54 1010.2
20260504222904 68 180 0.0 4.0 0.00 0.00 0.00 53 1010.4
20260504222402 69 142 5.0 5.0 0.00 0.00 0.00 51 1010.3
20260504221900 69 217 3.0 6.0 0.00 0.00 0.00 49 1010.3
20260504221356 69 143 3.0 5.0 0.00 0.00 0.00 50 1010.4
20260504220854 69 180 0.0 4.0 0.00 0.00 0.00 51 1010.2
20260504220350 69 180 0.0 5.0 0.00 0.00 0.00 50 1010.3
20260504215847 69 143 3.0 6.0 0.00 0.00 0.00 49 1010.2
20260504215344 69 203 2.0 3.0 0.00 0.00 0.00 49 1010.3
20260504214840 69 213 2.0 5.0 0.00 0.00 0.00 49 1010.2
20260504214337 69 228 4.0 4.0 0.00 0.00 0.00 48 1010.2
20260504213834 69 208 3.0 6.0 0.00 0.00 0.00 48 1010.1
20260504213329 69 239 7.0 10.0 0.00 0.00 0.00 47 1010.2
20260504212827 69 218 5.0 9.0 0.00 0.00 0.00 47 1010.2
20260504212323 70 151 3.0 6.0 0.00 0.00 0.00 47 1010.2
20260504211821 70 192 2.0 11.0 0.00 0.00 0.00 48 1010.2
20260504211317 71 172 2.0 6.0 0.00 0.00 0.00 48 1010.3
20260504210814 71 180 0.0 11.0 0.00 0.00 0.00 47 1010.2
20260504210311 72 175 5.0 9.0 0.00 0.00 0.00 44 1010.2
20260504205809 73 186 6.0 6.0 0.00 0.00 0.00 34 1010.1
20260504205306 73 250 3.0 5.0 0.00 0.00 0.00 43 1010.1
20260504204804 73 229 4.0 4.0 0.00 0.00 0.00 44 1010.2
20260504204302 73 254 2.0 7.0 0.00 0.00 0.00 33 1010.3
20260504203801 73 237 3.0 10.0 0.00 0.00 0.00 34 1010.1
20260504203258 74 185 3.0 7.0 0.00 0.00 0.00 33 1010.3
20260504202752 74 270 3.0 7.0 0.00 0.00 0.00 32 1010.2
20260504202250 74 270 3.0 7.0 0.00 0.00 0.00 32 1010.2
20260504201747 74 232 5.0 9.0 0.00 0.00 0.00 33 1010.2
20260504201244 74 110 5.0 7.0 0.00 0.00 0.00 34 1010.1
20260504200742 74 218 5.0 7.0 0.00 0.00 0.00 33 1010.3
20260504200237 74 190 5.0 7.0 0.00 0.00 0.00 34 1010.4
20260504195734 75 148 3.0 6.0 0.00 0.00 0.00 37 1010.5
20260504195230 74 256 5.0 7.0 0.00 0.00 0.00 34 1010.6
20260504194728 73 157 3.0 7.0 0.00 0.00 0.00 33 1010.6
20260504194223 76 251 8.0 8.0 0.00 0.00 0.00 33 1010.5
20260504193720 75 264 5.0 6.0 0.00 0.00 0.00 35 1010.4
20260504193218 76 250 3.0 5.0 0.00 0.00 0.00 34 1010.4
20260504192716 75 222 3.0 5.0 0.00 0.00 0.00 35 1010.9
20260504192214 75 263 0.0 5.0 0.00 0.00 0.00 35 1010.9
20260504191712 74 249 4.0 7.0 0.00 0.00 0.00 34 1010.9
20260504191209 74 243 2.0 4.0 0.00 0.00 0.00 34 1010.6
20260504190704 74 188 5.0 9.0 0.00 0.00 0.00 35 1010.8
20260504190200 74 173 1.0 5.0 0.00 0.00 0.00 34 1011.0
20260504185657 75 190 3.0 8.0 0.00 0.00 0.00 36 1011.3
20260504185153 75 99 0.0 5.0 0.00 0.00 0.00 35 1010.9
20260504184650 75 248 3.0 6.0 0.00 0.00 0.00 35 1011.3
20260504184144 75 266 5.0 6.0 0.00 0.00 0.00 33 1011.2
20260504182521 75 277 3.0 6.0 0.00 0.00 0.00 34 1011.6
20260504182018 75 277 3.0 6.0 0.00 0.00 0.00 34 1011.6
20260504181515 75 239 2.0 5.0 0.00 0.00 0.00 36 1011.6
20260504180351 74 231 3.0 7.0 0.00 0.00 0.00 32 1011.8
20260504175849 74 231 3.0 7.0 0.00 0.00 0.00 32 1011.8
20260504175345 75 293 2.0 6.0 0.00 0.00 0.00 33 1012.0
20260504174844 74 323 2.0 4.0 0.00 0.00 0.00 34 1012.0
20260504174341 74 252 4.0 7.0 0.00 0.00 0.00 33 1012.0
20260504173838 73 281 3.0 6.0 0.00 0.00 0.00 35 1011.8
20260504173334 72 243 5.0 7.0 0.00 0.00 0.00 35 1012.2
20260504172831 74 309 3.0 7.0 0.00 0.00 0.00 36 1012.3
20260504172328 73 324 2.0 8.0 0.00 0.00 0.00 35 1012.2
20260504171824 72 248 3.0 8.0 0.00 0.00 0.00 34 1012.4
20260504171321 73 213 4.0 7.0 0.00 0.00 0.00 36 1012.4
20260504170818 73 262 5.0 7.0 0.00 0.00 0.00 37 1012.4
20260504170315 73 236 4.0 8.0 0.00 0.00 0.00 36 1012.5
20260504160233 71 255 2.0 4.0 0.00 0.00 0.00 39 1013.2
20260504150659 69 258 4.0 8.0 0.00 0.00 0.00 48 1013.7
20260504150155 69 216 2.0 4.0 0.00 0.00 0.00 49 1013.8
20260504141124 66 247 7.0 13.0 0.00 0.00 0.00 52 1014.0
20260504140621 66 244 3.0 7.0 0.00 0.00 0.00 52 1014.1
20260504140117 65 257 2.0 10.0 0.00 0.00 0.00 53 1014.3
20260504130545 63 173 5.0 6.0 0.00 0.00 0.00 56 1014.7
20260504110432 44 98 0.0 1.0 0.00 0.00 0.00 94 1015.7
20260504100349 38 203 0.0 1.0 0.00 0.00 0.00 96 1015.7
20260504081742 40 195 0.0 0.0 0.00 0.00 0.00 92 1015.6
20260504081239 39 195 0.0 0.0 0.00 0.00 0.00 91 1015.5
20260504080736 39 195 0.0 0.0 0.00 0.00 0.00 91 1015.4
20260504080232 39 195 0.0 0.0 0.00 0.00 0.00 90 1015.2
20260504070159 40 246 0.0 0.0 0.00 0.00 0.00 89 1015.1
20260504060120 41 186 0.0 2.0 0.00 0.00 0.00 85 1014.6
20260504050548 40 255 0.0 0.0 0.00 0.00 0.00 81 1014.8
20260504045542 40 255 0.0 1.0 0.00 0.00 0.00 81 1014.8
20260504045037 40 240 0.0 1.0 0.00 0.00 0.00 81 1014.6
20260504044535 40 191 1.0 2.0 0.00 0.00 0.00 81 1014.4
20260504044032 40 286 0.0 0.0 0.00 0.00 0.00 80 1014.5
20260504043529 40 195 0.0 0.0 0.00 0.00 0.00 79 1014.5
20260504043026 40 200 0.0 1.0 0.00 0.00 0.00 80 1014.7
20260504042523 40 345 0.0 1.0 0.00 0.00 0.00 81 1014.7
20260504042020 40 14 0.0 0.0 0.00 0.00 0.00 79 1014.7
20260504041516 40 209 1.0 1.0 0.00 0.00 0.00 79 1014.5
20260504041012 40 180 0.0 2.0 0.00 0.00 0.00 79 1014.5
20260504040510 40 270 0.0 0.0 0.00 0.00 0.00 79 1014.7
20260504040006 40 325 0.0 1.0 0.00 0.00 0.00 78 1014.5
20260504035503 40 246 1.0 2.0 0.00 0.00 0.00 79 1014.6
20260504034959 40 254 0.0 1.0 0.00 0.00 0.00 80 1014.7
20260504034457 40 180 0.0 0.0 0.00 0.00 0.00 79 1014.3
20260504033954 40 180 0.0 1.0 0.00 0.00 0.00 77 1014.5
20260504033452 40 212 0.0 1.0 0.00 0.00 0.00 77 1014.1
20260504032949 40 246 0.0 1.0 0.00 0.00 0.00 77 1014.3
20260504032446 41 270 0.0 1.0 0.00 0.00 0.00 78 1014.3
20260504031942 41 254 0.0 1.0 0.00 0.00 0.00 78 1014.3
20260504031439 41 270 0.0 0.0 0.00 0.00 0.00 77 1014.2
20260504030936 41 246 0.0 1.0 0.00 0.00 0.00 77 1014.3
20260504030433 42 270 0.0 0.0 0.00 0.00 0.00 75 1014.2
20260504025929 42 270 0.0 1.0 0.00 0.00 0.00 75 1014.4
20260504025426 42 180 0.0 1.0 0.00 0.00 0.00 74 1014.2
20260504024923 42 203 0.0 1.0 0.00 0.00 0.00 73 1014.3
20260504024420 42 203 0.0 1.0 0.00 0.00 0.00 75 1014.4
20260504023917 42 270 0.0 0.0 0.00 0.00 0.00 75 1014.3
20260504023413 42 270 0.0 0.0 0.00 0.00 0.00 72 1014.2
20260504022909 42 270 0.0 0.0 0.00 0.00 0.00 73 1014.2
20260504022406 42 270 0.0 0.0 0.00 0.00 0.00 72 1014.2
20260504021902 42 270 0.0 0.0 0.00 0.00 0.00 72 1014.0
20260504021400 43 270 0.0 0.0 0.00 0.00 0.00 73 1014.1
20260504020857 43 270 0.0 1.0 0.00 0.00 0.00 71 1014.2
20260504020353 43 195 0.0 0.0 0.00 0.00 0.00 70 1014.3
20260504015849 43 195 0.0 0.0 0.00 0.00 0.00 69 1014.2
20260504015346 43 195 0.0 0.0 0.00 0.00 0.00 72 1014.3
20260504014842 44 209 0.0 1.0 0.00 0.00 0.00 70 1014.1
20260504014338 44 337 0.0 0.0 0.00 0.00 0.00 68 1014.1
20260504013836 44 337 0.0 0.0 0.00 0.00 0.00 65 1014.1
20260504013333 45 353 0.0 0.0 0.00 0.00 0.00 64 1014.1
20260504012830 45 353 0.0 0.0 0.00 0.00 0.00 64 1014.1
20260504012328 46 151 0.0 0.0 0.00 0.00 0.00 65 1014.0
20260504011825 45 166 0.0 1.0 0.00 0.00 0.00 67 1013.9
20260504011321 45 246 0.0 0.0 0.00 0.00 0.00 67 1013.9
20260504010817 45 246 0.0 0.0 0.00 0.00 0.00 65 1013.6
20260504010313 46 246 0.0 0.0 0.00 0.00 0.00 68 1013.6
20260504005810 46 246 0.0 0.0 0.00 0.00 0.00 67 1013.5
20260504005307 46 246 0.0 0.0 0.00 0.00 0.00 66 1013.3
20260504004804 46 246 0.0 0.0 0.00 0.00 0.00 62 1013.4
20260504004302 47 254 0.0 0.0 0.00 0.00 0.00 61 1013.2
20260504003758 47 188 0.0 0.0 0.00 0.00 0.00 60 1013.2
20260504003255 48 188 0.0 0.0 0.00 0.00 0.00 61 1013.1